Regional Weather Roundup
Issued by NWS

Home | Current Version | Previous Version | Text Only | Print | Product List | Glossary On
Versions: 1 2 3 4 5 6 7 8 9 10 11 12 13 14 15 16 17 18 19 20 21 22 23 24 25 26 27 28 29 30 31 32 33 34 35 36 37 38 39 40 41 42 43 44 45 46 47 48 49 50
000
ASUS43 KLOT 222010
RWRIL

ILLINOIS REGIONAL WEATHER ROUNDUP
NATIONAL WEATHER SERVICE CHICAGO/ROMEOVILLE IL
300 PM CDT FRI AUG 22 2014

NOTE: "FAIR" INDICATES FEW OR NO CLOUDS BELOW 12,000 FEET WITH NO
SIGNIFICANT WEATHER AND/OR OBSTRUCTIONS TO VISIBILITY.

* THESE STATIONS ARE NOT UNDER NWS QUALITY CONTROL. THEY ALSO MAY NOT
  REPORT WEATHER SUCH AS PRECIPITATION OR FOG.

ILZ001-002-007-009-015-016-024-222100-
NORTHWEST ILLINOIS

CITY           SKY/WX    TMP DP  RH WIND       PRES   REMARKS
MOLINE         MOSUNNY   87  73  62 SW10      29.92F HX  94
STERLING*      PTSUNNY   84  73  70 W12       29.94F HX  91
SAVANNA*       CLOUDY    84  73  67 SW8       29.93F HX  90
$$

ILZ003-004-008-010-011-017-018-222100-
NORTH CENTRAL ILLINOIS

CITY           SKY/WX    TMP DP  RH WIND       PRES   REMARKS
ROCKFORD       PTSUNNY   84  75  74 W7        29.94F HX  92
FREEPORT*      PTSUNNY   83  77  82 W6        29.96S HX  91
ROCHELLE*      CLOUDY    80  73  77 W9        29.95F HX  84
DE KALB*       CLOUDY    80  72  78 W7        29.96S HX  83
PERU*          CLOUDY    82  74  75 W9        29.95S HX  88
$$

ILZ005-006-012>014-019>023-222100-
NORTHEAST ILLINOIS

CITY           SKY/WX    TMP DP  RH WIND       PRES   REMARKS
CHICAGO-OHARE  PTSUNNY   85  68  56 SW5       29.92F HX  88
CHICAGO-MIDWAY PTSUNNY   86  71  60 SW10      29.92F HX  91
AURORA         CLOUDY    82  73  74 W13       29.94F HX  87
LANSING*       CLOUDY    85  71  63 W8        29.93F HX  90
JOLIET*        CLOUDY    82  69  64 W6        29.94F HX  85
WAUKEGAN       PTSUNNY   80  73  79 E7        29.93S HX  84
DUPAGE AIRPORT PTSUNNY   83  71  67 W8        29.93F HX  87
KANKAKEE*      CLOUDY    81  74  79 CALM      29.95F HX  86
WHEELING       PTSUNNY   87  71  58 CALM      29.93S HX  93
MORRIS*        CLOUDY    83  73  71 W7        29.94S HX  88
ROMEOVILLE*    PTSUNNY   81  71  71 W8        29.94F HX  84
NORTHERLY ISL    N/A     85  67  54 W7          N/A  HX  87
$$

LMZ740>746-222100-
SOUTHERN LAKE MICHIGAN

STATION/POSITION SKY/WX   TEMP    WIND        PRES    VSBY  WAVE
                          AIR SEA DIR/SP/G                  HT/PER
                          (F)     (DEG/KT/KT) (MB)    (MI)  (FT/S)
SOUTHERN BUOY              72 71  150/  4/  4 1013.8F         0
WAUKEGAN HARBOR            75      CALM  /  3   N/A
HARRISON CRIB              78     100/  8/  9   N/A
BURNHAM HARBOR             86     310/  3/ 10   N/A
CALUMET HARBOR             84     200/  8/ 11 1012.1F
MICHIGAN CITY              80     330/  1/  1   N/A
MICHIGAN CITY 6N           76 74  150/  2/  4   N/A           0
ST. JOSEPH                 75 72  100/  4/  6   N/A           0
$$

ILZ025>027-034>036-040-047-049-050-058-095>099-222100-
WEST-CENTRAL ILLINOIS

CITY           SKY/WX    TMP DP  RH WIND       PRES   REMARKS
QUINCY         MOSUNNY   88  74  63 S7        29.94F HX  96
GALESBURG*     MOSUNNY   85  76  74 S14       29.94F HX  95
MACOMB*        MOSUNNY   85  75  72 SW8       29.96F HX  94
JACKSONVILLE*  MOSUNNY   89  78  70 SW7       29.95F HX 102
PITTSFIELD*    MOSUNNY   89  74  62 S5        29.97F HX  98
$$

ILZ028>032-037-038-041>044-048-051>054-059>061-222100-
CENTRAL ILLINOIS

CITY           SKY/WX    TMP DP  RH WIND       PRES   REMARKS
PONTIAC        CLOUDY    81  75  83 W5        29.95S HX  86
DECATUR        CLOUDY    84  75  74 W10       29.95F HX  92
PEORIA         PTSUNNY   85  73  67 SW12      29.94R HX  91
LACON*         CLOUDY    80  73  79 SW6       29.93F HX  84
LINCOLN*       PTSUNNY   85  75  72 S3        29.91S HX  94
SPRINGFIELD    MOSUNNY   87  75  67 SW9       29.95F HX  96
TAYLORVILLE    PTSUNNY   82  75  78 S13       29.95F HX  89
$$

ILZ033-039-045-046-055>057-062-063-222100-
EAST-CENTRAL ILLINOIS

CITY           SKY/WX    TMP DP  RH WIND       PRES   REMARKS
CHAMPAIGN      CLOUDY    81  74  79 SE5       29.98S HX  86
DANVILLE*      RAIN      79  74  83 S7        29.95S HX  83
RANTOUL*       CLOUDY    83  71  67 CALM      29.98R HX  87
MATTOON        CLOUDY    85  74  69 S13       29.94F HX  92
PARIS*         CLOUDY    84  77  79 E3        29.98F HX  94
$$

ILZ079-100>102-222100-
SOUTHWEST ILLINOIS

CITY           SKY/WX    TMP DP  RH WIND       PRES   REMARKS
ALTON          PTSUNNY   90  79  70 S9        29.96  HX 105
BELLEVILLE     CLOUDY    88  78  71 VRB6      29.95F HX 101
CAHOKIA*       CLOUDY    90  75  61 S8        29.95F HX 100
SPARTA*        PTSUNNY   89  76  65 S3        29.99F HX  99
$$

ILZ064>066-069>071-074>076-080>082-084>086-088>090-092>094-222100-
SOUTH-CENTRAL ILLINOIS

CITY           SKY/WX    TMP DP  RH WIND       PRES   REMARKS
CARBONDALE     PTSUNNY   90  74  59 S6        29.98F HX  99
CAIRO*         MOSUNNY   95  75  52 S5        29.99F HX 106
MT. VERNON     CLOUDY    88  75  66 SW7       29.98F HX  97
CENTRALIA*     CLOUDY    90  74  59 SW7       29.97F HX  99
SALEM*         CLOUDY    87  77  73 SW8       29.98F HX  98
METROPOLIS*    MOSUNNY   93  71  49 SW3       29.98F HX  99
$$

ILZ067-068-072-073-078-083-087-091-222100-
SOUTHEAST ILLINOIS

CITY           SKY/WX    TMP DP  RH WIND       PRES   REMARKS
LAWRENCEVILLE  CLOUDY    86  76  71 SW14      29.95F HX  96
FLORA*         CLOUDY    84  74  73 SW9       29.98F HX  91
FAIRFIELD*     CLOUDY    86  81  84 SW3       29.97F HX 102
HARRISBURG*    PTSUNNY   90  74  60 S5        29.99F HX  99
ROBINSON*      CLOUDY    87  79  77 SW13      29.96S HX 100
CARMI*         PTSUNNY   91  79  66 S6        29.97F HX 107
$$

ABBREVIATIONS USED IN REMARKS
   TC - TEMPERATURE IN CELSIUS
  WCI - WIND CHILL INDEX
   HX - HEAT INDEX
  VSB - VISIBILITY
$$




USA.gov is the U.S. government's official web portal to all federal, state and local government web resources and services.